Location: Wien
(48.2082°N, 16.3738°E)
Time: 19:45:47
(UTC+02:00)

JY1SAT - Pass Details

Date: 23 May 2025
Orbit: 497 x 509 km, 97.5° (Epoch: 12 June)

Event Time Altitude Azimuth Distance (km) Brightness Sun altitude
Exits shadow 21:28:13 - 155° (SSE) 1,888 ? -7.5°
Reaches altitude 10° 21:28:36 10° 154° (SSE) 1,729 ? -7.5°
Maximum altitude 21:32:16 61° 74° (ENE) 583 ? -8.0°
Drops below altitude 10° 21:35:59 10° 354° (N) 1,740 ? -8.4°
Sets 21:38:05 0° 351° (N) 2,629 ? -8.6°
